Regional Weather Roundup
Issued by NWS Cleveland, OH

Home | Current Version | Previous Version | Graphics & Text | Print | Product List | Glossary On
Versions: 1 2 3 4 5 6 7 8 9 10 11 12 13 14 15 16 17 18 19 20 21 22 23 24 25 26 27 28 29 30 31 32 33 34 35 36 37 38 39 40 41 42 43 44 45 46 47 48 49 50
000
ASUS41 KCLE 252202
RWRCLE
OHIO REGIONAL WEATHER ROUNDUP
NATIONAL WEATHER SERVICE CLEVELAND, OH
600 PM EDT FRI JUL 25 2014

NOTE: "FAIR" INDICATES FEW OR NO CLOUDS BELOW 12,000 FEET WITH NO
SIGNIFICANT WEATHER AND/OR OBSTRUCTIONS TO VISIBILITY.

OHZ001>008-015>018-024>027-034-035-043-044-252300-
   NORTHWEST OHIO

CITY           SKY/WX    TMP DP  RH WIND       PRES   REMARKS
DEFIANCE       CLOUDY    74  55  51 SW8       30.00S
FINDLAY        PTSUNNY   75  53  46 SW10      29.98F
TOLEDO EXPRESS CLOUDY    74  54  49 SW8       29.99R
TOLEDO EXEC    PTSUNNY   76  53  44 SW12      29.99S
LIMA           CLOUDY    74  53  48 SW8       30.00F
$$

OHZ009>014-019>023-028>033-038-089-252300-
   NORTHEAST OHIO

CITY           SKY/WX    TMP DP  RH WIND       PRES   REMARKS
CLE-HOPKINS    PTSUNNY   73  53  49 N8        30.02F
CLE-LAKEFRONT  PTSUNNY   73  53  49 N5        29.99F
CUY CO. ARPT   PTSUNNY   73  55  53 NW9       30.03S
LORAIN-ELYRIA  MOSUNNY   78  50  37 SW7       30.00F
ASHTABULA      MOSUNNY   72  56  57 N5        30.02S
AKRON-CANTON   MOSUNNY   77  49  37 W8G16     30.02S
WOOSTER        SUNNY     74  53  48 S6        30.02F
MANSFIELD      SUNNY     76  53  44 SW7       30.02F
YOUNGSTOWN     PTSUNNY   75  51  43 SW7       30.02F
$$

OHZ042-051>053-060>062-070>072-077>081-252300-
  SOUTHWEST OHIO

CITY           SKY/WX    TMP DP  RH WIND       PRES   REMARKS
CINC-COVINGTON CLOUDY    74  57  55 SW6       30.02S
CINC-LUNKEN    PTSUNNY   77  56  48 W6        30.00F
HAMILTON       PTSUNNY   75  60  59 VRB3      30.00F
DAYTON         PTSUNNY   74  54  49 SW8       30.02F
WRIGHT-PAT AFB PTSUNNY   75  56  51 W2        30.01F
DAYTON GENERAL MOSUNNY   75  55  49 VRB3      30.00F
WILMINGTON     MOSUNNY   75  55  49 SW7       30.01F
$$

OHZ036-037-039>041-045>050-054>059-063>069-073>076-082>088-252300-
  CENTRAL AND SOUTHEAST OHIO

CITY           SKY/WX    TMP DP  RH WIND       PRES   REMARKS
COLUMBUS       PTSUNNY   79  53  40 S7        30.00F
OSU AIRPORT    MOSUNNY   76  55  48 SW9       30.01F
BOLTON FIELD   SUNNY     75  61  60 S6        30.02F
RICKENBACK AFB SUNNY     79  51  37 S7        30.01F
NEWARK         SUNNY     76  54  46 S5        30.02S
MARION         SUNNY     75  55  49 SW9       30.01F
LANCASTER      MOSUNNY   75  56  51 SW5       30.02F
ZANESVILLE     SUNNY     76  54  46 VRB3      30.02F
NEW PHILLY     MOSUNNY   75  55  49 SW5       30.03S
$$



USA.gov is the U.S. government's official web portal to all federal, state and local government web resources and services.